Regional Weather Roundup
Issued by NWS

Home | Current Version | Previous Version | Text Only | Print | Product List | Glossary On
Versions: 1 2 3 4 5 6 7 8 9 10 11 12 13 14 15 16 17 18 19 20 21 22 23 24 25 26 27 28 29 30 31 32 33 34 35 36 37 38 39 40 41 42 43 44 45 46 47 48 49 50
000
ASUS44 KJAN 291220
RWRMS

MISSISSIPPI HOURLY WEATHER ROUNDUP
NATIONAL WEATHER SERVICE JACKSON MS
700 AM CDT FRI JUL 29 2016

NOTE: "FAIR: INDICATES FEW OR NO CLOUDS BELOW 12,000 FEET WITH NO
SIGNIFICANT WEATHER AND/OR OBSTRUCTIONS TO VISIBILITY.

MSZ001>002-007>008-010>013-018>021-025>028-034>036-291300-
NORTHWEST MISSISSIPPI

CITY           SKY/WX    TMP DP  RH WIND       PRES   REMARKS
CLEVELAND      FAIR      74  74 100 S5        29.99R
GREENWOOD      CLOUDY    74  71  91 SW3       30.01R
6HR MIN TEMP:  74; 6HR MAX TEMP:  74; 6HR PCP: TRACE;

GREENVILLE     CLOUDY    75  72  90 S6        29.98S
6HR MIN TEMP:  75; 6HR MAX TEMP:  76;

OXFORD         CLOUDY    73  70  88 SW6       30.02R
WINONA         CLOUDY    73  72  98 CALM      30.02R
$$

MSZ003>006-009-014>017-022>024-029>033-037>039-291300-
NORTHEAST MISSISSIPPI

CITY           SKY/WX    TMP DP  RH WIND       PRES   REMARKS
ABERDEEN       FAIR      73  57  56 S3        30.02S HAZE
COLUMBUS AFB   CLOUDY    74  74 100 S2        30.01R
6HR MIN TEMP:  73; 6HR MAX TEMP:  74;

GOLDN TRIANGLE MOCLDY    73  68  83 SW5       30.01R
TUPELO         CLOUDY    76  71  85 S3        30.01R
6HR MIN TEMP:  75; 6HR MAX TEMP:  76;

$$

MSZ040-058-291300-
CENTRAL MISSISSIPPI

CITY           SKY/WX    TMP DP  RH WIND       PRES   REMARKS
JACKSON INTL   CLOUDY    73  71  93 SW3       30.02R
6HR MIN TEMP:  73; 6HR MAX TEMP:  74;

JACKSON HAWKNS CLOUDY    72  71  97 CALM      30.03R
6HR MIN TEMP:  72; 6HR MAX TEMP:  74;

MADISON        FAIR      72  70  94 CALM      30.03R
MERIDIAN KEY   CLOUDY    73  70  90 CALM      30.04S
6HR MIN TEMP:  72; 6HR MAX TEMP:  75;

MERIDIAN NAS   CLOUDY    74  69  85 SW5       30.03R
6HR MIN TEMP:  73; 6HR MAX TEMP:  76;

VICKSBURG VKS  CLOUDY    73  72  94 CALM      30.02S
$$

MSZ059>079-291300-
SOUTH MISSISSIPPI

CITY           SKY/WX    TMP DP  RH WIND       PRES   REMARKS
BROOKHAVEN     FAIR     N/A N/A N/A S3        30.05S
COLUMBIA       FAIR      72  72 100 CALM      30.07S
HATTIESBURG    PTCLDY    73  70  90 CALM      30.06R
6HR MIN TEMP:  71; 6HR MAX TEMP:  74;

MCCOMB         CLEAR     72  70  93 CALM      30.04R
6HR MIN TEMP:  70; 6HR MAX TEMP:  72;

NATCHEZ        CLOUDY    73  70  88 S3        30.03R
6HR MIN TEMP:  72; 6HR MAX TEMP:  73;

PINE BELT      PTCLDY    72  70  94 CALM      30.06R
6HR MIN TEMP:  70; 6HR MAX TEMP:  72;

$$

MSZ080>082-291300-
COASTAL MISSISSIPPI

CITY           SKY/WX    TMP DP  RH WIND       PRES   REMARKS
BAY ST LOUIS   CLEAR     81  68  65 CALM      30.03
BILOXI         CLEAR     77  76  97 NE2       30.02R
6HR MIN TEMP:  76; 6HR MAX TEMP:  80;

PASCAGOULA     CLEAR     75  75 100 CALM      30.03R
6HR MIN TEMP:  73; 6HR MAX TEMP:  77;

GULFPORT       CLEAR     77  73  87 CALM      30.02R
6HR MIN TEMP:  75; 6HR MAX TEMP:  77;

$$

LAZ007>009-015>016-023>026-291300-
NORTHEAST LOUISIANA

CITY           SKY/WX    TMP DP  RH WIND       PRES   REMARKS
BASTROP        CLOUDY    73  72  98 S3        30.02S FOG
TALLULAH/VBURG CLOUDY    74  72  93 CALM      30.02R
6HR MIN TEMP:  73; 6HR MAX TEMP:  74;

VIDALIA        PTSUNNY   73  73  99 CALM      30.05S
$$




USA.gov is the U.S. government's official web portal to all federal, state and local government web resources and services.